Weather Roundup
Issued by NWS

Home | Current Version | Previous Version | Text Only | Print | Product List | Glossary On
Versions: 1 2 3 4 5 6 7 8 9 10 11 12 13 14 15 16 17 18 19 20 21 22 23 24 25 26 27 28 29 30 31 32 33 34 35 36 37 38 39 40 41 42 43 44 45 46 47 48 49 50
000
NZUS93 KARX 270510
HRRWXR

CURRENT HOURLY OBSERVATIONS ACROSS
MUCH OF THE UPPER MISSISSIPPI VALLEY
NATIONAL WEATHER SERVICE LA CROSSE WI
1200 AM CDT THU AUG 27 2015


...SOUTHEAST MINNESOTA...


CITY           SKY/WX    TMP DP  RH WIND       PRES   REMARKS
ROCHESTER      CLEAR     56  53  90 SE6       30.15F
ROCHESTER/MAYO FAIR      60  54  79 SE8       30.15S
WINONA         CLEAR     55  54  94 CALM      30.15S
AUSTIN         CLEAR     55  54  94 CALM      30.13F
ALBERT LEA     CLEAR     61  54  77 SE3       30.12F
DODGE CENTER   CLEAR     54  52  94 SE6       30.14F
PRESTON        CLEAR     57  52  83 CALM      30.16S
OWATONNA       PTCLDY    59  54  82 SE6       30.12F
FARIBAULT      PTCLDY    54  54 100 CALM      30.12F
$$

...ELSEWHERE IN MINNESOTA...


CITY           SKY/WX    TMP DP  RH WIND       PRES   REMARKS
MINNEAPOLIS    PTCLDY    63  54  72 SE7       30.12F
INTNL FALLS    CLEAR     43  42  97 CALM      30.11
DULUTH         CLEAR     52  48  86 CALM      30.14S
RED WING       CLEAR     54  52  94 CALM      30.12F
REDWOOD FALLS  CLOUDY    61  55  81 SE7       30.09S
MANKATO        PTCLDY    59  52  77 SE8       30.11S
WORTHINGTON    CLEAR     61  52  72 S9        30.09F
FAIRMONT       PTCLDY    55  48  76 S7        30.10F
$$

...SOUTHWEST WISCONSIN...


CITY           SKY/WX    TMP DP  RH WIND       PRES   REMARKS
LA CROSSE      CLEAR     58  54  86 E5        30.15R
PRAIRIE DU CHI CLEAR     56  52  89 E3        30.14S
BOSCOBEL       FOG       52  51  97 CALM      30.16S VSB 3/4
LONE ROCK      CLEAR     53  51  93 CALM      30.16S
PLATTEVILLE    CLEAR     59  56  89 SE8       30.16S
FORT MC COY    CLEAR     49  48  97 CALM      30.16S
CAMP DOUGLAS   CLEAR     48  48 100 CALM      30.14F FOG
VIROQUA        FAIR      58  52  78 CALM      30.16S
WIS DELLS      CLEAR     55  52  89 CALM      30.15S
$$

...ELSEWHERE IN WISCONSIN...


CITY           SKY/WX    TMP DP  RH WIND       PRES   REMARKS
MILWAUKEE      CLEAR     56  51  84 SW6       30.18S
MADISON        CLEAR     59  53  80 S6        30.16S
GREEN BAY      CLEAR     55  53  93 S3        30.14S
EAU CLAIRE     CLEAR     54  52  93 CALM      30.14S FOG
BLACK RVR FLS  FAIR      46  46 100 CALM      30.15S
MEDFORD        CLEAR     48  48 100 CALM      30.17R
WAUSAU         CLEAR     54  52  93 CALM      30.14S
WIS RAPIDS     CLEAR     52  50  93 CALM      30.15F
MARSHFIELD     CLEAR     55  49  80 CALM      30.14F
RICE LAKE      FOG       51  49  96 CALM      30.16S VSB 1/4
$$

...NORTHEAST IOWA...


CITY           SKY/WX    TMP DP  RH WIND       PRES   REMARKS
DECORAH        CLOUDY    57  52  82 CALM      30.15S
MASON CITY     CLEAR     52  50  93 S3        30.14F
CHARLES CITY   CLEAR     55  55 100 E6        30.15S
OELWEIN          N/A    N/A N/A N/A MISG        N/A
$$

...ELSEWHERE IN IOWA...


CITY           SKY/WX    TMP DP  RH WIND       PRES   REMARKS
DES MOINES     PTCLDY    65  53  65 SE6       30.13F
IOWA CITY      CLEAR     58  54  86 CALM      30.16S
FORT DODGE     CLEAR     57  52  82 SE6       30.12F
$$

...NORTHERN ILLINOIS...


CITY           SKY/WX    TMP DP  RH WIND       PRES   REMARKS
CHICAGO-OHARE  CLEAR     58  53  84 CALM      30.17F
CHICAGO-MIDWAY PTCLDY    64  52  64 N3        30.17F
MOLINE         CLEAR     61  55  81 E5        30.14F
ROCKFORD       CLEAR     57  53  86 CALM      30.19F
PEORIA         CLEAR     61  54  77 SE3       30.17F
$$

NOTE: "FAIR" INDICATES FEW OR NO CLOUDS BELOW 12,000 FEET WITH NO
SIGNIFICANT WEATHER AND/OR OBSTRUCTIONS TO VISIBILITY. WIND
SPEEDS ARE IN MILES-PER-HOUR.



USA.gov is the U.S. government's official web portal to all federal, state and local government web resources and services.